Location: Mentone
(34.5413°N, 85.5351°W)
Time: 11:46:19
(UTC-06:00)

Tiros 1 despin weight - All Passes

Search period start: 21 November 2014 00:00
Search period end: 01 December 2014 00:00
Orbit: 600 x 651 km, 48.2° (Epoch: 21 November)

Date Brightness Start Highest point End Pass type
(mag) Time Alt. Az. Time Alt. Az. Time Alt. Az.
21 Nov - 00:58:40 10° NNW 01:02:07 20° NNE 01:05:33 10° ENE night (unlit)
21 Nov - 02:39:56 10° NW 02:44:37 58° NNE 02:49:15 10° ESE visible
21 Nov - 04:22:21 10° W 04:26:05 23° SW 04:29:47 10° S visible
21 Nov - 18:28:37 10° S 18:31:42 18° SE 18:34:49 10° E visible
21 Nov - 20:08:24 10° WSW 20:13:01 71° NW 20:17:42 10° NE visible
21 Nov - 21:51:49 10° WNW 21:55:23 21° NNW 21:59:00 10° NNE night (unlit)
21 Nov - 23:35:45 10° NNW 23:38:32 15° N 23:41:19 10° NE night (unlit)
22 Nov - 01:17:28 10° NW 01:21:31 27° NNE 01:25:34 10° E night (unlit)
22 Nov - 02:58:53 10° WNW 03:03:36 71° SW 03:08:16 10° SE visible
22 Nov - 18:46:07 10° SSW 18:50:22 39° SE 18:54:43 10° ENE visible
22 Nov - 20:27:47 10° W 20:32:07 38° NNW 20:36:31 10° NE visible
22 Nov - 22:11:52 10° NW 22:14:53 17° N 22:17:54 10° NNE night (unlit)
22 Nov - 23:54:54 10° NNW 23:58:05 18° NNE 00:01:15 10° NE night (unlit)
23 Nov - 01:36:12 10° NW 01:40:45 44° NNE 01:45:16 10° ESE night (unlit)
23 Nov - 03:18:10 10° WNW 03:22:24 33° SW 03:26:36 10° SSE visible
23 Nov - 17:26:16 10° SSE 17:28:05 12° SE 17:29:53 10° ESE visible
23 Nov - 19:04:37 10° SW 19:09:12 85° SE 19:13:53 10° NE visible
23 Nov - 20:47:35 10° WNW 20:51:23 24° NNW 20:55:15 10° NE night (unlit)
23 Nov - 22:31:43 10° NW 22:34:26 15° N 22:37:11 10° NE night (unlit)
24 Nov - 00:13:45 10° NNW 00:17:32 23° NNE 00:21:19 10° ENE night (unlit)
24 Nov - 01:55:03 10° NW 01:59:48 84° NE 02:04:31 10° SE night (unlit)
24 Nov - 03:38:22 10° W 03:41:02 15° SW 03:43:42 10° SSW visible
24 Nov - 17:42:48 10° S 17:46:40 28° SE 17:50:36 10° ENE visible
24 Nov - 19:23:45 10° WSW 19:28:12 49° NNW 19:32:45 10° NE visible
24 Nov - 21:07:36 10° WNW 21:10:48 18° NNW 21:14:03 10° NNE night (unlit)
24 Nov - 22:51:03 10° NNW 22:54:00 16° N 22:56:57 10° NE night (unlit)
25 Nov - 00:32:28 10° NW 00:36:49 35° NNE 00:41:09 10° E night (unlit)
25 Nov - 02:14:07 10° WNW 02:18:39 46° SW 02:23:09 10° SSE night (unlit)
25 Nov - 18:00:55 10° SW 18:05:24 61° SE 18:09:59 10° ENE visible
25 Nov - 19:43:21 10° W 19:47:23 29° NNW 19:51:29 10° NE visible
25 Nov - 21:27:33 10° NW 21:30:19 15° N 21:33:06 10° NNE night (unlit)
25 Nov - 23:09:59 10° NNW 23:13:29 20° NNE 23:16:59 10° ENE night (unlit)
26 Nov - 00:51:13 10° NW 00:55:55 63° NE 01:00:36 10° ESE night (unlit)
26 Nov - 02:33:46 10° W 02:37:20 22° SW 02:40:54 10° S night (unlit)
26 Nov - 16:39:43 10° S 16:42:58 19° SE 16:46:14 10° E daylight
26 Nov - 18:19:47 10° WSW 18:24:18 66° NW 18:28:56 10° NE visible
26 Nov - 20:03:17 10° WNW 20:06:43 20° NNW 20:10:12 10° NNE visible
26 Nov - 21:47:06 10° NNW 21:49:52 15° N 21:52:39 10° NE night (unlit)
26 Nov - 23:28:43 10° NW 23:32:49 29° NNE 23:36:56 10° E night (unlit)
27 Nov - 01:10:09 10° WNW 01:14:50 65° SW 01:19:31 10° SE night (unlit)
27 Nov - 16:57:20 10° SSW 17:01:36 43° SE 17:05:58 10° ENE visible
27 Nov - 18:39:10 10° W 18:43:23 36° NNW 18:47:41 10° NE visible
27 Nov - 20:23:18 10° NW 20:26:11 16° N 20:29:06 10° NNE visible
27 Nov - 22:06:10 10° NNW 22:09:22 18° NNE 22:12:35 10° NE night (unlit)
27 Nov - 23:47:25 10° NW 23:51:59 48° NNE 23:56:33 10° ESE night (unlit)
28 Nov - 01:29:28 10° WNW 01:33:35 30° SW 01:37:41 10° SSE night (unlit)
28 Nov - 15:37:06 10° SSE 15:39:15 13° SE 15:41:25 10° E daylight
28 Nov - 17:15:53 10° SW 17:20:25 88° NW 17:25:03 10° NE visible
28 Nov - 18:58:57 10° WNW 19:02:38 23° NNW 19:06:22 10° NNE visible
28 Nov - 20:43:02 10° NW 20:45:42 15° N 20:48:23 10° NE night (unlit)
28 Nov - 22:24:56 10° NNW 22:28:45 24° NNE 22:32:35 10° ENE night (unlit)
29 Nov - 00:06:13 10° NW 00:10:58 89° SW 00:15:41 10° SE night (unlit)
29 Nov - 01:49:49 10° W 01:52:10 14° SW 01:54:30 10° SSW night (unlit)
29 Nov - 15:53:54 10° SSW 15:57:49 30° SE 16:01:48 10° ENE daylight
29 Nov - 17:35:02 10° WSW 17:39:24 45° NNW 17:43:51 10° NE visible
29 Nov - 19:18:57 10° NW 19:22:01 17° NNW 19:25:08 10° NNE visible
29 Nov - 21:02:16 10° NNW 21:05:12 16° N 21:08:10 10° NE night (unlit)
29 Nov - 22:43:36 10° NW 22:47:58 37° NNE 22:52:22 10° E night (unlit)
30 Nov - 00:25:18 10° WNW 00:29:45 42° SW 00:34:12 10° SSE night (unlit)
30 Nov - 16:12:04 10° SW 16:16:32 67° SE 16:21:05 10° ENE daylight
30 Nov - 17:54:39 10° W 17:58:33 27° NNW 18:02:31 10° NE visible
30 Nov - 19:38:50 10° NW 19:41:30 15° N 19:44:11 10° NNE visible
30 Nov - 21:21:06 10° NNW 21:24:38 21° NNE 21:28:10 10° ENE night (unlit)
30 Nov - 23:02:19 10° NW 23:07:01 68° NE 23:11:43 10° ESE night (unlit)
